Date String (YYYY-MM-DD hh:mm:ss) UTC,Instrument flags,absolute air pressure of the measurement (hPa),sample flow rate (lpm),inlet stack bypass flow (lpm),air temperature of the measurement (°C),ambient temperature measured by the external sensor (°C),aerosol sample conditioner tube jacket temperature (°C),OPC LED temperature (°C),internal box temperature (°C),relative humidity of the measurement (%),span deviation,mass concentration of particles derived from Lorenz-Mie calculation of OPC scattering (μg/m³),mass concentration of particles derived from Lorenz-Mie calculation of OPC scattering (μg/m³),mass concentration of particles derived from Lorenz-Mie calculation of OPC scattering (μg/m³)
DateTimeUTC,F1_M11,P_M11,Q1_M11,Q2_M11,T1_M11,T2_M11,T3_M11,T4_M11,T5_M11,U1_M11,ZSPAN_M11,X2_M11,X0_M11,X1_M11
2023-11-28 04:00:00,SystemResetWarning,0833.1,5.00,000.00,021.1,020.3,000.0,029.4,022.4,10.8,0000.0,0005.00,0010.20,0004.40
2023-11-28 04:01:00,SystemResetWarning,0833.2,5.00,000.00,021.1,020.3,000.0,029.4,022.4,10.9,0000.0,0004.99,0010.08,0004.38
2023-11-28 04:02:00,SystemResetWarning,0833.1,5.00,000.00,021.1,020.3,000.0,029.4,022.3,10.8,0000.0,0004.99,0010.07,0004.36
2023-11-28 04:03:00,SystemResetWarning,0833.1,5.00,000.00,021.1,020.3,000.0,029.4,022.4,10.8,0000.0,0004.98,0010.26,0004.35
2023-11-28 04:04:00,SystemResetWarning,0833.2,5.01,000.00,021.1,020.3,000.0,029.4,022.3,10.8,0000.0,0004.96,0010.57,0004.33
2023-11-28 04:05:00,SystemResetWarning,0833.2,5.00,000.00,021.1,020.3,000.0,029.4,022.3,10.8,0000.0,0005.00,0011.04,0004.34
2023-11-28 04:06:00,SystemResetWarning,0833.2,5.00,000.00,021.1,020.3,000.0,029.4,022.3,10.8,0000.0,0005.01,0011.07,0004.37
2023-11-28 04:07:00,SystemResetWarning,0833.2,5.00,000.00,021.1,020.3,000.0,029.4,022.3,10.8,0000.0,0005.03,0010.89,0004.38
2023-11-28 04:08:00,SystemResetWarning,0833.1,5.00,000.00,021.1,020.3,000.0,029.4,022.3,10.8,0000.0,0005.03,0010.51,0004.39
2023-11-28 04:09:00,SystemResetWarning,0833.2,5.00,000.00,021.1,020.3,000.0,029.4,022.3,10.8,0000.0,0004.99,0010.09,0004.40
2023-11-28 04:10:00,SystemResetWarning,0833.1,5.00,000.00,021.1,020.3,000.0,029.4,022.3,10.8,0000.0,0004.95,0009.98,0004.39
2023-11-28 04:11:00,SystemResetWarning,0833.1,4.99,000.00,021.1,020.3,000.0,029.4,022.3,10.8,0000.0,0004.97,0009.92,0004.39
2023-11-28 04:12:00,SystemResetWarning,0833.1,5.00,000.00,021.1,020.3,000.0,029.4,022.3,10.8,0000.0,0004.95,0010.14,0004.39
2023-11-28 04:13:00,SystemResetWarning,0833.1,5.00,000.00,021.1,020.3,000.0,029.4,022.4,10.8,0000.0,0004.95,0010.13,0004.39
2023-11-28 04:14:00,SystemResetWarning,0833.1,4.99,000.00,021.1,020.3,000.0,029.4,022.3,10.8,0000.0,0004.99,0010.44,0004.39
2023-11-28 04:15:00,SystemResetWarning,0833.2,5.00,000.00,021.1,020.3,000.0,029.4,022.3,10.8,0000.0,0004.97,0010.23,0004.39
2023-11-28 04:16:00,SystemResetWarning,0833.2,5.00,000.00,021.1,020.3,000.0,029.4,022.3,10.8,0000.0,0004.93,0009.82,0004.38
2023-11-28 04:17:00,SystemResetWarning,0833.2,4.99,000.00,021.1,020.3,000.0,029.4,022.3,10.8,0000.0,0004.89,0010.33,0004.37
2023-11-28 04:18:00,SystemResetWarning,0833.2,5.00,000.00,021.1,020.2,000.0,029.4,022.3,10.8,0000.0,0004.90,0010.42,0004.35
2023-11-28 04:19:00,SystemResetWarning,0833.2,5.00,000.00,021.1,020.2,000.0,029.4,022.3,10.8,0000.0,0004.87,0010.20,0004.35
2023-11-28 04:20:00,SystemResetWarning,0833.2,5.00,000.00,021.1,020.2,000.0,029.4,022.3,10.9,0000.0,0004.82,0010.03,0004.34
2023-11-28 04:21:00,SystemResetWarning,0833.2,5.01,000.00,021.1,020.2,000.0,029.4,022.3,10.9,0000.0,0004.79,0009.85,0004.33
2023-11-28 04:22:00,SystemResetWarning,0833.2,5.01,000.00,021.1,020.2,000.0,029.4,022.3,10.9,0000.0,0004.77,0009.70,0004.33
2023-11-28 04:23:00,SystemResetWarning,0833.2,5.01,000.00,021.1,020.2,000.0,029.4,022.3,10.9,0000.0,0004.79,0009.61,0004.35
2023-11-28 04:24:00,SystemResetWarning,0833.2,5.01,000.00,021.1,020.2,000.0,029.4,022.3,10.9,0000.0,0004.84,0009.55,0004.36
2023-11-28 04:25:00,SystemResetWarning,0833.2,5.00,000.00,021.1,020.2,000.0,029.4,022.3,10.9,0000.0,0004.85,0010.24,0004.37
2023-11-28 04:26:00,SystemResetWarning,0833.2,5.00,000.00,021.1,020.2,000.0,029.4,022.3,10.9,0000.0,0004.84,0010.21,0004.38
2023-11-28 04:27:00,SystemResetWarning,0833.2,4.99,000.00,021.1,020.2,000.0,029.4,022.3,10.9,0000.0,0004.87,0010.25,0004.40
2023-11-28 04:28:00,SystemResetWarning,0833.2,5.00,000.00,021.1,020.2,000.0,029.4,022.3,10.9,0000.0,0004.93,0009.71,0004.42
2023-11-28 04:29:00,SystemResetWarning,0833.2,5.00,000.00,021.1,020.2,000.0,029.4,022.3,10.9,0000.0,0004.96,0009.85,0004.44
2023-11-28 04:30:00,SystemResetWarning,0833.2,5.00,000.00,021.1,020.2,000.0,029.4,022.3,10.9,0000.0,0004.97,0009.91,0004.45
2023-11-28 04:31:00,SystemResetWarning,0833.2,5.01,000.00,021.1,020.2,000.0,029.4,022.3,10.9,0000.0,0005.00,0010.03,0004.48
2023-11-28 04:32:00,SystemResetWarning,0833.2,5.01,000.00,021.1,020.2,000.0,029.4,022.3,10.9,0000.0,0005.06,0010.23,0004.50
2023-11-28 04:33:00,SystemResetWarning,0833.2,5.00,000.00,021.1,020.2,000.0,029.4,022.3,10.9,0000.0,0005.10,0010.36,0004.52
2023-11-28 04:34:00,SystemResetWarning,0833.2,5.00,000.00,021.1,020.1,000.0,029.4,022.2,10.9,0000.0,0005.15,0010.44,0004.54
2023-11-28 04:35:00,SystemResetWarning,0833.2,5.00,000.00,021.0,020.1,000.0,029.4,022.2,10.9,0000.0,0005.17,0010.45,0004.55
2023-11-28 04:36:00,SystemResetWarning,0833.2,4.99,000.00,021.0,020.1,000.0,029.4,022.2,10.9,0000.0,0005.19,0009.97,0004.58
2023-11-28 04:37:00,SystemResetWarning,0833.2,5.00,000.00,021.0,020.1,000.0,029.4,022.2,11.0,0000.0,0005.25,0009.67,0004.61
2023-11-28 04:38:00,SystemResetWarning,0833.2,5.00,000.00,021.0,020.1,000.0,029.4,022.2,11.1,0000.0,0005.26,0009.68,0004.61
2023-11-28 04:39:00,SystemResetWarning,0833.2,5.01,000.00,021.0,020.1,000.0,029.3,022.2,11.1,0000.0,0005.38,0009.68,0004.72
2023-11-28 04:40:00,SystemResetWarning,0833.2,5.00,000.00,021.0,020.1,000.0,029.3,022.1,11.1,0000.0,0005.44,0009.64,0004.79
2023-11-28 04:41:00,SystemResetWarning,0833.2,5.00,000.00,021.0,020.1,000.0,029.3,022.1,11.2,0000.0,0005.53,0010.38,0004.87
2023-11-28 04:42:00,SystemResetWarning,0833.2,5.00,000.00,021.0,020.1,000.0,029.3,022.2,11.2,0000.0,0005.62,0011.04,0004.95
2023-11-28 04:43:00,SystemResetWarning,0833.2,5.00,000.00,021.0,020.0,000.0,029.3,022.2,11.2,0000.0,0005.65,0011.21,0004.97
2023-11-28 04:44:00,SystemResetWarning,0833.2,5.00,000.00,020.9,020.0,000.0,029.3,022.1,11.2,0000.0,0005.68,0011.27,0005.00
2023-11-28 04:45:00,SystemResetWarning,0833.2,5.00,000.00,020.9,020.0,000.0,029.3,022.1,11.2,0000.0,0005.70,0011.59,0005.01
2023-11-28 04:46:00,SystemResetWarning,0833.2,5.00,000.00,020.9,019.9,000.0,029.3,022.0,11.3,0000.0,0005.70,0011.77,0005.04
2023-11-28 04:47:00,SystemResetWarning,0833.1,5.01,000.00,020.9,019.9,000.0,029.3,022.1,11.3,0000.0,0005.71,0011.63,0005.06
2023-11-28 04:48:00,SystemResetWarning,0833.2,5.01,000.00,020.9,019.9,000.0,029.3,022.0,11.3,0000.0,0005.71,0011.61,0005.07
2023-11-28 04:49:00,SystemResetWarning,0833.2,5.00,000.00,020.9,019.9,000.0,029.3,022.0,11.3,0000.0,0005.73,0011.99,0005.09
2023-11-28 04:50:00,SystemResetWarning,0833.2,4.99,000.00,020.8,019.9,000.0,029.3,022.0,11.3,0000.0,0005.64,0012.47,0005.01
2023-11-28 04:51:00,SystemResetWarning,0833.3,5.00,000.00,020.8,019.9,000.0,029.3,022.0,11.3,0000.0,0005.62,0012.38,0004.98
2023-11-28 04:52:00,SystemResetWarning,0833.3,5.01,000.00,020.8,019.9,000.0,029.2,021.9,11.3,0000.0,0005.59,0011.90,0004.95
2023-11-28 04:53:00,SystemResetWarning,0833.3,5.01,000.00,020.8,019.9,000.0,029.2,021.9,11.3,0000.0,0005.56,0011.31,0004.91
2023-11-28 04:54:00,SystemResetWarning,0833.3,4.98,000.00,020.8,019.8,000.0,029.2,021.8,11.3,0000.0,0005.56,0011.32,0004.91
2023-11-28 04:55:00,SystemResetWarning,0833.2,5.00,000.00,020.7,019.8,000.0,029.2,021.9,11.3,0000.0,0005.54,0011.35,0004.92
2023-11-28 04:56:00,SystemResetWarning,0833.2,5.00,000.00,020.7,019.8,000.0,029.2,021.8,11.3,0000.0,0005.55,0011.78,0004.93
2023-11-28 04:57:00,SystemResetWarning,0833.2,5.01,000.00,020.7,019.7,000.0,029.2,021.8,11.3,0000.0,0005.58,0011.72,0004.95
2023-11-28 04:58:00,SystemResetWarning,0833.2,5.01,000.00,020.7,019.7,000.0,029.2,021.8,11.3,0000.0,0005.61,0011.95,0004.95
2023-11-28 04:59:00,SystemResetWarning,0833.2,5.00,000.00,020.7,019.7,000.0,029.1,021.8,11.2,0000.0,0005.61,0012.08,0004.95
